User: anonymous   Login
Location: Caracas
(10.5033°N, 66.8422°W)
Time: 09:51:22
(UTC-04:00)
Language:

N. Korean satellite - Orbit

View from above orbital plane
View from above orbital plane
View from above satellite
View from above satellite

Ground track
Ground track

The orbit data is extracted from the following two-line orbital elements,

1 39026U 12072A   18055.60885641 +.00001574 +00000-0 +61936-4 0  9995
2 39026 097.2145 069.8079 0039716 005.2056 354.9588 15.26389872288420
Epoch (UTC): 24 February 2018 14:36:45
Eccentricity: 0.0039716
inclination: 97.2145°
perigee height: 459 km
apogee height: 514 km
right ascension of ascending node: 69.8079°
argument of perigee: 5.2056°
revolutions per day: 15.26389872
mean anomaly at epoch: 354.9588°
orbit number at epoch: 28842

The dashed part of the orbit path shows where the satellite is in the earth's shadow,  

DLR